Yakima, WA
on Sunday, February 3, 2013

Sunday
Previous Day Next Day
Daily Summary
 ActualAverageRecord
Temperature
Mean Temperature °F / °C 34°F / 1°C  
Max Temperature 45°F / 7°C 43°F / 6°C 61°F / 16°C (1962)
Min Temperature 25°F / -4°C 25°F / -4°C -23°F / -30°C (1950)
Degree Days
Heating Degree Days 30 31  
Month to date heating degree days 78 93  
Since 1 July heating degree days 3347 3811  
Cooling Degree Days 0 0  
Month to date cooling degree days 0 0  
Year to date cooling degree days 0 0  
Moisture
Dew Point 29°F / -2°C   
Average Humidity 77    
Maximum Humidity 92    
Minimum Humidity 62    
Precipitation
Precipitation 0.00 in / 0.00 cm 0.02 in / 0.51 cm 0.37 in / 0.94 cm (1998)
Month to date precipitation 0.00 0.08  
Year to date precipitation 0.10 1.22  
Snow
Snow 0.00 in / 0.00 cm 0.10 in / 0.25 cm 1.50 in / 3.81 cm (1950)
Month to date snowfall 0.0 0.3  
Year to date snowfall 1.1 5.6  
Since 1 July snowfall 15.3 18.6  
Snow Depth 0.00 in / 0.00 cm   
Wind
Wind Speed 2 mph / 3 km/h   
Max Wind Speed 12 mph / 19 km/h   
Max Gust Speed 25 mph / 40 km/h   
Visibility 7 miles / 12 kilometers   
Events     

Key: T is trace of precipitation, MM is missing value
Source: NWS Daily Summary
Time(PST)TemperatureDew PointHumidity Pressure Visibility Wind DirectionWind SpeedGust SpeedPrecipitationEvents Conditions
12:53 AM 28.0°F / -2.2°C 25.0°F / -3.9°C 88% 30.27 in / 1025.0 hPa 8.0 miles / 12.9 kilometers Calm Calm - N/A   Clear
1:53 AM 27.0°F / -2.8°C 23.0°F / -5.0°C 85% 30.28 in / 1025.3 hPa 7.0 miles / 11.3 kilometers Calm Calm - N/A   Clear
2:53 AM 26.1°F / -3.3°C 21.9°F / -5.6°C 84% 30.27 in / 1025.0 hPa 7.0 miles / 11.3 kilometers West 6.9 mph / 11.1 km/h - N/A   Clear
3:53 AM 28.0°F / -2.2°C 24.1°F / -4.4°C 85% 30.25 in / 1024.4 hPa 7.0 miles / 11.3 kilometers East 3.5 mph / 5.6 km/h - N/A   Clear
4:53 AM 25.0°F / -3.9°C 21.0°F / -6.1°C 85% 30.26 in / 1024.7 hPa 6.0 miles / 9.7 kilometers Calm Calm - N/A   Clear
5:53 AM 27.0°F / -2.8°C 24.1°F / -4.4°C 89% 30.27 in / 1024.8 hPa 7.0 miles / 11.3 kilometers West 6.9 mph / 11.1 km/h - N/A   Clear
6:53 AM 28.9°F / -1.7°C 25.0°F / -3.9°C 85% 30.26 in / 1024.6 hPa 7.0 miles / 11.3 kilometers Calm Calm - N/A   Clear
7:53 AM 28.9°F / -1.7°C 25.0°F / -3.9°C 85% 30.28 in / 1025.3 hPa 5.0 miles / 8.0 kilometers Calm Calm - N/A   Clear
8:53 AM 33.1°F / 0.6°C 28.0°F / -2.2°C 82% 30.27 in / 1025.0 hPa 6.0 miles / 9.7 kilometers Calm Calm - N/A   Haze
9:53 AM 33.1°F / 0.6°C 28.9°F / -1.7°C 85% 30.27 in / 1024.8 hPa 6.0 miles / 9.7 kilometers Calm Calm - N/A   Mostly Cloudy
10:53 AM 37.0°F / 2.8°C 30.0°F / -1.1°C 76% 30.27 in / 1025.0 hPa 6.0 miles / 9.7 kilometers Calm Calm - N/A   Haze
11:53 AM 41.0°F / 5.0°C 30.9°F / -0.6°C 67% 30.24 in / 1023.9 hPa 10.0 miles / 16.1 kilometers Calm Calm - N/A   Clear
12:53 PM 42.1°F / 5.6°C 30.9°F / -0.6°C 65% 30.22 in / 1023.1 hPa 9.0 miles / 14.5 kilometers Calm Calm - N/A   Clear
1:53 PM 44.1°F / 6.7°C 32.0°F / 0.0°C 63% 30.18 in / 1022.0 hPa 10.0 miles / 16.1 kilometers Calm Calm - N/A   Clear
2:53 PM 44.1°F / 6.7°C 32.0°F / 0.0°C 63% 30.19 in / 1022.1 hPa 10.0 miles / 16.1 kilometers Calm Calm - N/A   Clear
3:53 PM 43.0°F / 6.1°C 33.1°F / 0.6°C 68% 30.19 in / 1022.4 hPa 10.0 miles / 16.1 kilometers West 6.9 mph / 11.1 km/h - N/A   Clear
4:53 PM 41.0°F / 5.0°C 32.0°F / 0.0°C 70% 30.19 in / 1022.2 hPa 9.0 miles / 14.5 kilometers Calm Calm - N/A   Partly Cloudy
5:53 PM 39.9°F / 4.4°C 32.0°F / 0.0°C 73% 30.19 in / 1022.1 hPa 8.0 miles / 12.9 kilometers ESE 3.5 mph / 5.6 km/h - N/A   Mostly Cloudy
6:53 PM 37.9°F / 3.3°C 30.9°F / -0.6°C 76% 30.20 in / 1022.5 hPa 8.0 miles / 12.9 kilometers West 3.5 mph / 5.6 km/h - N/A   Partly Cloudy
7:53 PM 37.4°F / 3.0°C 32.0°F / 0.0°C 81% 30.17 in / 1021.6 hPa 7.0 miles / 11.3 kilometers West 4.6 mph / 7.4 km/h - N/A   Overcast
8:53 PM 37.0°F / 2.8°C 32.0°F / 0.0°C 82% 30.19 in / 1022.2 hPa 6.0 miles / 9.7 kilometers NW 3.5 mph / 5.6 km/h - N/A   Haze
9:53 PM 36.0°F / 2.2°C 30.9°F / -0.6°C 82% 30.18 in / 1021.8 hPa 6.0 miles / 9.7 kilometers Calm Calm - N/A   Haze
10:53 PM 35.1°F / 1.7°C 30.9°F / -0.6°C 85% 30.17 in / 1021.7 hPa 5.0 miles / 8.0 kilometers West 4.6 mph / 7.4 km/h - N/A   Clear
11:53 PM 34.0°F / 1.1°C 30.0°F / -1.1°C 85% 30.17 in / 1021.4 hPa 5.0 miles / 8.0 kilometers WSW 4.6 mph / 7.4 km/h - N/A   Clear
Moon Phase
Feb. 03 Feb. 10 Feb. 17 Feb. 25 Mar. 04
Sunrise:07:22 AM (PST) Moon Rise:12:57 AM (PST)2/3
Sunset:05:09 PM (PST) Moon Set:10:48 AM (PST)2/3

Copyright © 2014 The Weather Underground, Inc.